Vertical_Velocity
1 0 1 1 1 1 1 0 0 0 0 0 0 0 0 0 -0 -0 -0 -0 -0 0 0 0 0 -0 -0 -1 -1 -1 -1 -1 -1 -1 -1 -0 -0 -0 -0 -0 -0 -0 -0 -0 -0 -0 -0 -0 -0 -0 -1 -1 -1 -1 -1 -1 -1 -1 -1 -1 -1 -1 -1 -1 -1 -1 -1 -1 -1 -1 -1 -1 -1 -2 -2 -1 -1 -2 -1 -1 -1 -2 -1 -1 -1 -1 -1 -1 -2 -2 -2 -2 -2 -2 -2 -2 -2 -1 -1 -1 -1 -1 -1
0 -0 1 1 1 1 0 -0 -0 0 0 0 0 0 0 0 -0 -0 -0 -0 0 0 1 1 0 -0 -0 -1 -1 -1 -1 -1 -1 -1 -1 -1 -0 -0 -0 -0 -0 -0 -0 -0 -0 -0 -0 -0 -0 -0 -1 -1 -1 -1 -1 -1 -1 -1 -1 -1 -1 -1 -1 -1 -1 -1 -1 -1 -1 -1 -1 -1 -2 -2 -2 -2 -2 -2 -2 -1 -2 -2 -1 -1 -1 -1 -1 -1 -2 -2 -2 -2 -2 -2 -2 -2 -2 -1 -1 -1 -1 -1 -1
1 -0 -0 1 1 0 0 -0 -0 -0 -0 0 0 1 1 0 0 -0 -0 -0 0 1 1 1 0 -0 -0 -1 -1 -1 -1 -1 -1 -1 -1 -1 -0 -0 -0 -0 0 0 0 -0 -0 -0 -0 -0 -0 -0 -1 -1 -1 -1 -1 -1 -1 -1 -1 -1 -1 -1 -1 -1 -1 -1 -1 -1 -1 -1 -1 -1 -1 -1 -1 -1 -2 -2 -2 -2 -2 -2 -2 -1 -1 -1 -2 -2 -2 -2 -2 -2 -2 -2 -2 -2 -2 -2 -2 -2 -1 -1 -1
1 0 -1 -0 0 -0 -0 -0 -0 -0 -0 0 0 1 1 1 0 -0 0 0 0 1 1 1 0 0 -0 -1 -1 -1 -1 -1 -1 -1 -1 -1 -0 -0 0 0 0 0 0 -0 -0 -0 -0 -0 -0 -0 -1 -1 -1 -1 -1 -1 -1 -1 -1 -1 -1 -1 -1 -1 -1 -1 -1 -1 -1 -1 -1 -1 -1 -1 -1 -1 -2 -2 -2 -2 -2 -2 -2 -1 -1 -2 -1 -2 -2 -2 -2 -2 -2 -2 -2 -2 -2 -2 -2 -2 -2 -2 -1
1 1 -0 -0 -0 -0 -0 -0 -0 -0 -0 0 0 1 1 1 0 0 0 0 0 1 1 1 0 -0 -1 -1 -1 -1 -1 -1 -1 -1 -1 -1 -0 -0 0 0 0 0 0 0 -0 -0 -0 -0 -0 -0 -1 -1 -1 -1 -1 -1 -1 -1 -1 -1 -1 -1 -1 -1 -1 -1 -1 -1 -1 -1 -1 -1 -1 -1 -1 -1 -2 -2 -2 -2 -2 -2 -2 -2 -2 -2 -2 -2 -2 -2 -2 -2 -2 -2 -2 -2 -2 -2 -2 -2 -1 -1 -1
0 1 0 -0 -0 -0 -0 -0 -0 -0 -0 -0 0 0 1 1 1 1 0 0 0 1 1 1 0 -0 -0 -1 -1 -1 -1 -1 -1 -1 -1 -1 -0 -0 0 0 0 0 0 0 0 -0 -0 -0 -0 -0 -1 -1 -1 -1 -1 -1 -1 -1 -1 -1 -1 -1 -1 -1 -1 -1 -1 -1 -1 -0 -0 -1 -1 -2 -2 -2 -2 -2 -2 -2 -2 -2 -2 -2 -2 -2 -2 -2 -2 -2 -2 -2 -2 -2 -2 -2 -2 -2 -2 -2 -2 -1 -1
-0 0 0 -0 -0 -0 -0 -0 -0 -0 -0 -0 -0 0 1 1 1 0 0 0 0 1 1 1 0 -0 -0 -1 -1 -1 -1 -1 -1 -1 -1 -1 -0 -0 0 0 0 0 0 0 0 0 -0 -0 -0 -0 -0 -1 -1 -1 -1 -1 -1 -1 -1 -1 -1 -0 -0 -0 -1 -1 -1 -1 -1 -0 -0 -1 -1 -1 -2 -2 -2 -1 -2 -2 -2 -2 -2 -2 -2 -2 -2 -2 -2 -2 -2 -2 -2 -2 -2 -2 -2 -2 -2 -2 -2 -2 -2
0 0 0 -0 -0 -0 -0 -0 -0 -0 -0 -0 -0 0 0 0 0 0 0 0 1 1 1 1 0 -0 -1 -1 -1 -1 -1 -1 -1 -1 -1 -1 -0 0 0 0 0 0 0 0 0 0 0 0 0 -0 -0 -0 -1 -1 -1 -1 -1 -1 -1 -1 -0 -0 -0 -0 -0 -0 -0 -0 -1 -1 -1 -1 -1 -1 -2 -1 -1 -1 -1 -1 -1 -1 -2 -2 -2 -2 -2 -2 -2 -2 -2 -2 -2 -2 -2 -2 -2 -2 -2 -2 -2 -2 -2
1 0 -0 -0 -0 -0 -0 -0 -0 -1 -1 -0 -0 -0 -0 0 0 0 0 0 1 1 1 1 0 -0 -1 -1 -1 -1 -1 -1 -1 -1 -1 -0 0 0 0 0 0 0 0 0 0 0 0 0 -0 -0 -0 -0 -0 -1 -1 -1 -1 -1 -1 -1 -0 -0 0 -0 -0 -0 -0 -0 -1 -1 -1 -1 -1 -1 -1 -1 -1 -1 -1 -1 -1 -1 -1 -1 -1 -2 -2 -2 -2 -2 -2 -2 -2 -2 -2 -2 -2 -2 -2 -2 -2 -1 -1
1 0 -0 -0 -0 -0 -0 -0 -1 -1 -1 -0 -0 -0 0 0 0 0 0 1 1 1 1 1 0 -1 -1 -1 -1 -1 -1 -1 -1 -1 -1 -0 0 0 -0 0 0 0 1 0 0 0 0 -0 -0 -0 -0 -0 -1 -1 -1 -1 -1 -1 -1 -0 -0 -0 0 0 -0 -0 -0 -0 -0 -0 -0 -1 -1 -1 -1 -1 -1 -1 -1 -1 -1 -1 -1 -1 -1 -1 -2 -2 -2 -2 -2 -2 -2 -2 -2 -2 -2 -2 -2 -2 -2 -1 -1
1 0 -0 0 0 -0 -0 -0 -0 -1 -1 -0 -0 -0 0 0 0 0 0 1 1 1 1 1 0 -0 -1 -1 -1 -1 -1 -1 -1 -1 -0 0 -0 -0 -0 -0 0 0 1 0 0 0 -0 -0 -0 -0 -0 -1 -1 -1 -1 -1 -1 -1 -0 -0 -0 -0 0 0 0 -0 -0 0 -0 -0 -0 -1 -1 -1 -1 -1 -1 -1 -1 -1 -1 -1 -1 -1 -1 -1 -1 -1 -2 -2 -2 -2 -2 -2 -2 -2 -2 -2 -2 -2 -2 -2 -2
1 0 0 0 0 0 -0 -0 -0 -1 -1 -0 -0 -0 -0 0 0 0 1 1 1 1 2 1 1 0 -1 -1 -1 -1 -2 -2 -1 -1 -0 -0 -0 -1 -1 -0 0 0 0 0 0 0 -0 -0 -0 -0 -1 -1 -1 -1 -1 -1 -1 -0 -0 -0 -0 0 0 0 0 0 0 0 0 -0 -0 -1 -1 -1 -1 -0 -1 -1 -1 -0 -1 -1 -1 -1 -1 -1 -1 -1 -1 -1 -1 -2 -2 -2 -2 -2 -2 -2 -2 -2 -2 -2 -2
1 0 0 0 0 0 0 0 -0 -0 -0 -0 -0 -0 -0 0 0 0 1 1 1 1 2 2 1 0 -0 -1 -1 -2 -2 -2 -1 -1 -0 -0 -1 -1 -1 -0 0 0 0 0 0 -0 -0 -0 -0 -0 -1 -1 -1 -1 -1 -1 -0 -0 0 -0 -0 0 0 0 0 0 0 1 0 0 -0 -0 -1 -1 -1 -1 -1 -1 -1 -1 -1 -1 -1 -1 -1 -1 -1 -1 -1 -1 -1 -1 -2 -2 -2 -2 -2 -2 -2 -2 -2 -2 -2
0 0 0 0 0 0 0 0 0 -0 -0 -0 -0 -0 -0 -0 0 0 0 1 1 1 2 2 1 0 -0 -1 -1 -2 -2 -2 -2 -1 -1 -1 -1 -1 -1 -0 -0 0 0 0 -0 -0 -0 -0 -0 -0 -0 -0 -0 -0 -1 -0 -0 -0 0 0 0 0 0 0 0 0 0 1 1 0 0 -0 -0 -1 -1 -1 -1 -1 -1 -1 -1 -1 -1 -1 -1 -1 -1 -1 -1 -1 -1 -1 -2 -2 -2 -2 -2 -2 -2 -2 -2 -2 -2
0 -0 0 0 0 0 0 0 0 -0 -0 -0 -0 -0 -0 -0 -0 0 0 1 1 1 1 2 1 1 -0 -1 -1 -2 -2 -2 -2 -1 -1 -1 -1 -1 -1 -0 -0 -0 0 -0 -0 -0 -0 -0 -0 -0 -0 -0 -0 -0 -0 -0 -0 0 0 0 1 1 0 0 0 0 1 1 0 0 0 -0 -0 -1 -1 -1 -1 -0 -1 -1 -1 -1 -1 -1 -1 -1 -1 -1 -1 -1 -1 -2 -2 -2 -2 -2 -2 -2 -2 -2 -2 -2 -2
0 -0 0 0 1 1 0 0 -0 -0 -0 0 0 -0 -0 -0 -0 -0 0 0 0 1 1 1 1 1 -0 -0 -1 -1 -2 -2 -2 -1 -1 -1 -1 -1 -1 -0 -0 -0 -0 -0 -0 -0 -0 -0 -0 -0 -0 -0 -0 -0 -0 -0 0 0 0 1 1 1 1 0 0 0 0 0 0 -0 -0 -0 -0 -1 -1 -0 -0 -0 -0 -1 -1 -1 -1 -1 -1 -1 -1 -1 -1 -1 -2 -2 -2 -2 -2 -2 -2 -2 -2 -2 -2 -2 -2
0 0 0 0 1 1 1 0 0 -0 -0 0 0 0 0 -0 -0 -0 -0 -0 0 0 1 1 1 1 0 -0 -1 -1 -1 -1 -1 -1 -1 -1 -1 -1 -1 -0 -0 -0 -0 -0 -0 -0 -0 -0 -0 -0 -0 -0 -0 -0 -0 0 0 0 0 1 1 0 0 0 0 -0 0 0 0 0 -1 -1 -0 -0 -0 -0 -0 -0 -1 -1 -1 -1 -1 -1 -1 -1 -1 -1 -1 -1 -1 -1 -2 -2 -2 -2 -2 -2 -2 -2 -2 -2 -2
1 0 0 0 1 1 1 0 0 0 0 0 0 0 0 -0 -0 -0 -0 -0 -0 0 1 1 1 1 0 -0 -0 -1 -1 -1 -1 -1 -1 -1 -1 -1 -0 -0 -0 -0 -0 -0 -0 -0 -0 -0 -0 -0 -0 -0 -0 -0 0 0 0 0 1 0 0 0 0 0 -0 -1 -1 0 1 0 -1 -1 -0 -0 -0 -0 -0 -0 -1 -1 -1 -1 -0 -0 -1 -1 -1 -1 -1 -1 -1 -1 -1 -1 -2 -2 -2 -2 -2 -2 -2 -2 -3
1 1 1 1 1 1 1 1 1 0 0 0 0 0 0 -0 -0 -1 -1 -0 -0 0 0 1 1 1 1 0 -0 -0 -0 -1 -1 -1 -1 -1 -1 -1 -0 -0 -0 -0 -0 -0 -0 -0 -0 -0 -0 -0 -0 -0 -0 -0 0 0 0 0 0 0 0 0 0 0 0 -0 -1 -0 0 0 -1 -1 -0 -0 -0 -0 -0 -0 -1 -1 -0 -0 -0 -0 -0 -0 -0 -0 -1 -1 -1 -1 -1 -1 -1 -1 -2 -2 -2 -2 -2 -2 -2
1 1 1 1 1 1 1 1 0 0 0 -0 -0 -0 -0 -0 -1 -1 -1 -1 -0 -0 0 1 1 1 1 0 0 -0 -0 -0 -0 -0 -0 -1 -1 -1 -0 -0 -0 -0 -0 -0 -0 -0 -0 -0 -0 -0 -0 -0 -0 0 0 0 0 0 0 1 1 1 0 0 0 0 -0 -0 -0 -0 -0 -0 -0 -0 -0 -1 -1 -1 -1 -0 -0 -0 -0 -0 -0 -0 -0 -0 -0 -0 -0 -0 -0 -1 -1 -1 -1 -1 -2 -2 -2 -2 -2
1 0 1 1 0 0 0 0 -0 -0 -0 -1 -1 -1 -1 -1 -1 -1 -1 -1 -0 -0 0 1 1 1 1 1 0 -0 -0 -0 -0 -0 -0 -0 -0 -0 -0 -0 -0 -0 -0 -0 -0 -0 -0 -0 -0 -0 -0 -0 0 0 0 -0 -0 0 0 1 1 1 0 0 0 0 0 -0 -0 -0 -0 -0 -0 -0 -0 -1 -1 -1 -1 -1 -0 -0 -0 -1 -0 -0 -0 -0 -0 -0 -0 -0 -0 -0 -0 -0 -1 -1 -1 -1 -1 -2 -2
-0 -0 -0 -0 -0 -1 -1 -1 -1 -1 -1 -1 -1 -1 -1 -1 -1 -1 -1 -1 -0 -0 0 1 1 1 1 1 0 0 -0 -0 0 0 0 -0 -0 -0 -0 -0 -0 -0 -0 -0 -0 -0 -0 -0 -0 -0 -0 0 0 0 0 -0 -0 0 1 1 1 1 0 0 0 -0 -1 -0 -1 -1 -1 -0 -0 -0 -0 -0 -1 -1 -1 -1 -1 -0 -0 -1 -0 -0 -0 -0 0 0 0 -0 -0 -0 -0 -0 -0 -0 -1 -1 -1 -1 -1
0 0 -0 -0 -1 -1 -1 -1 -1 -2 -2 -1 -1 -1 -1 -1 -1 -1 -1 -0 -0 0 0 1 1 1 1 1 0 0 -0 -0 -0 0 0 0 -0 0 0 0 -0 -0 -0 -0 -0 -0 -0 -0 -0 -0 -0 0 1 1 0 -0 -0 -0 1 1 1 1 0 0 0 -0 -1 -1 -1 -1 -1 -1 -1 -0 -0 -0 -1 -1 -2 -1 -1 -1 -0 -0 -0 -0 -0 0 0 0 0 -0 -0 -0 -0 -0 -0 -0 -0 -1 -1 -1 -1
1 1 -0 -0 -0 -0 -1 -1 -1 -1 -1 -1 -1 -1 -1 -1 -1 -1 -0 -0 -0 0 0 1 1 1 1 1 0 0 -0 -0 -0 -0 -0 -0 0 0 0 0 0 -0 -0 -0 -0 -0 -0 -0 -0 -0 -0 0 0 0 0 -0 -1 -1 0 1 1 1 0 0 -0 -0 -0 -0 -0 -1 -1 -1 -1 -0 -0 0 -0 -1 -1 -2 -2 -1 -1 -1 -0 -0 -0 0 0 0 0 -0 -0 -0 -0 -0 -0 -0 -0 -1 -1 -1 -1
1 1 0 1 1 0 0 -0 -0 -1 -1 -1 -1 -1 -1 -1 -1 -0 -0 -0 -0 0 0 1 1 1 1 1 0 0 -0 -0 -0 -0 -0 -0 0 0 1 0 0 0 -0 -0 -0 -0 -0 -0 -0 -1 -1 0 0 0 -0 -1 -1 -0 1 1 1 1 0 -0 -0 -0 -0 -0 -0 -0 -1 -1 -1 -0 -0 -0 -0 -1 -1 -1 -2 -2 -1 -1 -1 -1 -0 -0 0 0 0 -0 -0 -0 -0 -0 -1 -1 -1 -1 -1 -1 -1
2 1 1 1 1 1 1 0 0 -0 -0 -0 -0 -0 -0 -0 -0 -0 -0 -0 -0 0 0 0 1 1 1 1 1 0 0 -0 0 0 -0 -0 -0 0 1 1 0 0 0 -0 -0 -0 -0 -0 -0 -1 -0 0 0 0 -0 -1 -1 -0 1 0 0 0 -0 -0 -0 -0 -0 -0 -0 -1 -1 -1 -1 -0 -0 -0 -0 -0 -1 -1 -1 -1 -2 -1 -1 -1 -1 -1 -0 -0 0 -0 -0 -0 -0 -0 -1 -1 -1 -1 -1 -1 -1
3 2 2 2 2 2 1 1 1 1 0 1 1 1 0 -0 -0 -0 -0 -0 -0 -0 -0 -0 0 1 1 1 1 0 0 0 0 0 0 -0 -0 0 1 1 1 0 0 0 0 -0 0 0 -0 -1 -0 0 0 0 -0 -1 -0 0 0 -0 -0 -0 -0 -0 -0 0 0 -0 -1 -1 -1 -1 -1 -0 -1 -0 -0 -0 -0 -1 -1 -1 -1 -1 -1 -1 -1 -1 -1 -0 -0 -0 -0 -0 -0 -0 -0 -0 -1 -1 -1 -1 -1
3 3 3 3 3 2 2 1 1 1 1 1 1 1 0 -0 -0 -0 -0 -0 -0 -0 -0 -0 0 1 1 1 1 1 0 0 0 0 -0 -0 -0 0 1 1 1 1 1 1 0 0 0 0 -0 -0 -0 0 0 0 -0 -0 -0 -0 -0 -0 -0 -1 -1 -1 -1 -1 -1 -1 -1 -1 -1 -0 0 -0 -1 -1 -0 -0 -1 -1 -1 -1 -2 -1 -1 -1 -1 -1 -1 -0 -0 -0 -0 -0 -0 -0 -0 -0 -0 -0 -1 -1 -1
4 3 4 4 3 2 2 2 2 2 1 1 1 0 0 0 0 0 -0 -0 -0 -0 -0 -0 0 1 1 1 1 1 1 0 0 0 -0 -0 -0 0 1 1 1 1 1 1 0 0 0 0 -0 -0 0 0 0 0 -0 -0 -0 -0 -0 -0 -0 -0 -0 -0 -0 -0 -1 -1 -1 -1 -1 0 0 -0 -2 -1 -1 -1 -1 -1 -1 -1 -2 -1 -1 -1 -1 -1 -1 -1 -1 -1 -0 -0 -0 -0 -0 0 -0 -0 -0 -1 -1
5 4 5 4 3 3 3 3 3 2 1 2 1 1 1 1 1 1 0 0 0 0 -0 -0 -0 0 1 1 1 1 1 1 0 0 -0 -0 -0 -0 1 1 1 1 1 1 1 0 -0 -0 -0 -0 0 0 0 0 -0 -0 -0 -0 -0 -0 -0 -0 -0 -0 -1 -1 -1 -0 0 1 1 1 0 -1 -2 -1 -1 -1 -1 -1 -1 -1 -1 -1 -2 -2 -1 -1 -1 -1 -1 -1 -1 -1 -1 -0 -0 0 0 0 -0 -0 -1
5 4 4 3 3 4 4 4 3 2 2 2 2 2 1 2 2 1 1 1 1 0 -0 -0 -0 -0 0 1 1 1 1 1 1 1 0 -0 -0 -0 1 1 1 1 1 1 1 0 0 -0 -0 -0 -0 0 1 0 -0 -0 -0 -0 -0 -0 -0 -0 -0 -0 0 0 -0 -0 -0 -1 -2 -1 -1 -1 -1 -1 -1 -2 -2 -1 -1 -1 -1 -1 -2 -2 -1 -1 -1 -1 -1 -1 -1 -1 -1 -1 -0 -0 0 0 0 -0 -0
5 4 3 3 3 3 3 3 2 2 2 3 3 2 2 3 3 2 2 2 1 1 0 0 0 0 0 1 1 0 0 1 1 1 1 -0 -0 -0 0 1 1 1 1 1 1 1 0 0 -0 -1 -0 0 1 0 -0 -0 -0 -0 -0 -0 -1 -1 -0 -0 -0 0 0 -0 -0 -1 -1 -0 -0 -1 -1 -1 -2 -2 -2 -1 -1 -1 -1 -1 -1 -1 -1 -1 -1 -1 -1 -1 -1 -1 -1 -1 -1 -1 -0 0 0 0 -0
4 3 3 3 3 3 3 2 2 2 3 4 4 3 3 3 3 3 3 2 2 1 1 1 0 0 0 0 0 -0 -0 0 1 2 1 0 -0 -0 0 1 1 1 1 1 1 1 1 0 -0 -0 -0 0 1 0 0 0 0 -0 -0 -0 -1 -1 -1 -0 -0 -0 0 -0 -1 -1 -1 -1 -0 -1 -1 -1 -1 -2 -1 -1 -1 -1 -1 -1 -1 -1 -1 -1 -1 -1 -1 -1 -1 -1 -1 -1 -1 -1 -0 -0 0 0 0
4 4 4 5 4 4 3 2 2 3 5 4 4 4 4 4 4 4 3 2 2 1 0 -0 -0 -0 -0 -0 -1 -1 -1 -0 0 1 2 1 0 -0 -0 0 1 1 1 1 1 1 1 0 -0 -0 -0 0 1 1 0 0 0 0 -0 -0 -1 -1 -1 -0 -0 -0 -0 -0 -1 -1 -1 -1 -1 -0 -0 -1 -1 -1 -1 -1 -1 -1 -1 -1 -1 -0 -1 -1 -1 -1 -1 -1 -1 -1 -1 -1 -1 -1 -1 -0 0 1 1
6 6 6 5 5 4 3 3 4 5 5 5 4 4 5 5 4 4 3 2 1 0 -0 -1 -1 -1 -1 -1 -1 -2 -2 -1 -0 0 1 1 0 -0 -1 -0 0 1 1 1 1 1 1 1 0 -0 -0 0 1 1 0 0 0 1 0 -0 -0 -1 -1 -0 -0 -0 -0 -0 -0 -1 -0 -1 -0 -0 -0 -1 -1 -0 -0 -1 -1 -1 -1 -1 -0 -0 -1 -1 -1 -1 -2 -1 -1 -1 -1 -1 -1 -0 -0 -0 0 1 1
7 6 6 4 4 4 4 4 5 5 5 5 5 5 5 5 4 3 3 1 1 0 -0 -1 -1 -1 -1 -1 -1 -2 -2 -2 -1 -0 1 1 0 -0 -1 -1 -0 0 1 1 1 1 0 1 0 0 0 0 1 1 0 0 0 1 1 0 -0 -0 -0 -0 -0 -0 -0 -0 -0 -0 -0 -0 -0 -0 -0 -0 -0 -0 -0 -0 -1 -1 -1 -0 -0 -0 -0 -1 -1 -1 -1 -2 -2 -1 -1 -1 -1 -1 -0 -0 0 1 1
12 10 6 3 3 4 5 4 4 5 6 5 5 5 5 4 4 3 2 1 1 0 0 -0 -1 -1 -1 -1 -1 -1 -1 -2 -2 -1 0 1 0 -0 -1 -1 -1 -0 0 0 0 0 1 1 0 0 -0 0 1 1 0 0 0 1 1 1 0 0 0 0 0 0 0 -0 -0 -0 -0 -0 -0 -0 -0 -0 0 0 -0 -0 -1 -1 -1 -0 0 0 0 -0 -1 -2 -1 -2 -2 -1 -1 -1 -1 -1 -1 -0 -0 0 1
14 14 10 5 3 4 5 4 4 5 6 5 5 5 4 4 4 3 2 2 1 1 1 1 -0 -1 -1 -1 -0 -0 -1 -1 -2 -1 -0 0 1 0 -1 -1 -1 -0 0 -0 -0 0 0 0 0 0 -0 0 1 1 0 0 0 0 1 1 1 0 0 0 0 0 0 0 0 0 -0 -0 -0 -0 -0 -0 -0 -0 -0 -1 -1 -1 -1 -0 -0 0 0 0 -0 -1 -1 -2 -1 -1 -1 -1 -1 -1 -1 -1 -0 0 1
9 10 11 9 5 2 3 4 5 6 6 6 5 4 5 5 5 4 3 2 2 2 2 1 1 -0 -1 -1 -0 0 -0 -1 -1 -1 -1 0 1 1 0 -0 -0 -0 0 -0 -0 0 0 0 0 0 0 1 1 1 1 0 0 0 1 1 1 0 0 0 0 0 0 0 0 0 0 0 -0 -0 -0 -0 -0 -0 -0 -0 -0 -0 -0 -0 -0 -0 -0 -0 0 -0 -1 -1 -1 -1 -0 -0 -0 -0 -0 -1 -1 -0 1
5 5 6 7 4 2 4 4 5 6 7 6 5 5 5 5 5 4 3 2 2 2 2 1 1 -0 -1 -1 -1 -0 -0 -0 -0 -0 -0 -0 1 1 1 0 -0 -0 -0 -0 0 0 1 0 0 0 1 1 1 1 1 1 0 0 0 0 0 0 0 -0 -0 -0 0 0 0 0 0 0 0 0 -0 -0 0 0 -0 -0 -0 -0 -0 -0 -1 -1 -1 -0 -0 -0 -0 -1 -1 -1 -0 -0 0 0 -0 -0 -0 -0 0
3 3 2 3 4 5 5 4 4 6 7 6 5 5 5 5 4 4 3 3 3 2 2 1 0 -0 -1 -1 -0 -0 0 0 0 -0 -0 0 1 1 1 0 0 -0 -0 -0 0 1 1 1 1 1 1 1 0 0 1 1 0 0 0 0 0 0 0 -0 -0 -0 0 0 0 0 0 0 0 0 0 0 0 0 0 0 0 -0 -0 -0 -1 -1 -1 -1 -1 -0 -0 -0 -0 -0 0 0 0 0 -0 -0 -0 -0 -0
4 4 1 1 5 8 4 3 4 6 7 6 5 5 5 5 4 4 4 3 3 3 2 1 1 1 1 1 1 1 1 1 1 1 1 1 1 1 1 0 -0 -0 -0 0 1 1 1 1 1 1 1 0 -0 0 1 1 0 0 1 1 0 0 -0 -0 -0 -0 0 0 0 0 0 0 0 0 0 0 0 0 0 0 0 0 -0 -0 -1 -1 -1 -1 -1 -1 -0 -0 -0 -0 -0 0 0 -0 -0 -0 -0 -0 -0
5 6 2 -0 4 7 4 4 5 6 6 5 5 6 6 5 5 5 4 4 3 3 2 2 1 1 1 1 1 1 1 1 1 1 1 1 1 1 1 0 0 -0 -0 0 1 1 1 1 1 0 -0 -1 -0 0 1 1 1 1 1 1 0 -0 -0 -0 -0 -0 0 0 0 0 0 0 0 0 0 0 0 0 -0 -0 -0 -0 -0 -1 -1 -1 -1 -1 -1 -1 -0 -0 -0 -0 -1 -1 -0 -0 -1 -1 -1 -1 -0
5 5 2 0 1 3 4 4 5 6 5 5 5 6 7 6 5 4 4 4 4 4 3 2 2 2 1 1 1 2 2 2 2 2 2 2 2 1 1 1 0 -0 -0 0 1 2 2 2 1 0 -1 -1 -0 0 1 1 1 1 1 1 0 -0 -0 0 0 0 0 -0 -0 -0 -0 -0 0 0 0 0 0 0 -0 -0 -0 -0 -0 -1 -1 -1 -1 -0 -0 -0 -0 -0 -0 -0 -1 -1 -1 -1 -1 -1 -1 -1 -1
7 7 4 1 -0 -0 3 4 5 6 5 4 5 6 6 6 5 4 4 4 4 4 3 3 3 2 2 1 2 2 3 3 3 2 2 2 2 2 2 1 1 0 -0 0 1 2 2 2 1 -0 -1 -1 -0 0 1 1 1 1 0 0 0 0 0 0 0 0 0 -0 -0 -0 -0 -0 -0 -0 -0 -0 -0 -0 -0 -0 -0 -0 -0 -1 -1 -1 -1 -0 -0 -0 -0 -0 -0 -0 -1 -1 -1 -1 -2 -2 -2 -2 -2
10 10 7 3 0 -1 1 4 5 6 4 4 5 5 5 4 3 3 4 4 4 4 3 4 4 3 3 3 3 3 4 4 3 3 2 1 2 2 2 1 1 0 -0 0 1 2 3 2 1 0 -0 -1 -0 0 1 1 0 0 -0 0 0 0 0 1 1 1 1 0 -0 -0 -1 -1 -1 -1 -1 -0 -0 -0 -0 -0 -0 -0 -0 -0 -0 -1 -0 -0 -0 -0 -0 -0 -0 -0 -1 -1 -1 -2 -2 -2 -2 -2 -2
11 9 6 5 3 -0 -2 3 5 5 3 4 4 4 3 2 2 3 4 4 4 4 3 4 4 4 3 3 3 2 3 3 2 2 1 1 1 1 2 2 1 -0 -1 -0 1 2 3 3 2 1 0 -0 -0 0 1 1 0 -0 -1 -0 -0 -0 0 1 1 1 1 0 -0 -0 -1 -1 -1 -1 -1 -1 -1 -0 -0 -0 -0 -0 -0 -0 -0 -0 -0 -0 -0 -0 -0 -0 -0 -0 -1 -1 -1 -2 -2 -2 -2 -2 -3
15 8 0 4 4 1 -4 2 5 4 1 1 2 2 1 2 3 4 4 5 5 4 4 4 4 4 3 2 2 1 1 1 2 2 1 1 1 0 1 1 1 -0 -1 -1 0 2 3 3 3 2 1 1 0 0 1 1 0 -0 -0 -0 -0 -1 -0 0 1 1 1 1 0 -1 -1 -1 -1 -1 -1 -1 -1 -0 -0 -0 -0 -0 -0 -0 -0 -0 -0 0 0 0 -0 -0 -0 -0 -0 -1 -1 -2 -2 -2 -2 -2 -2
21 13 2 2 3 3 -1 4 5 3 -1 -1 0 2 3 5 7 7 8 8 7 6 6 5 5 4 4 3 2 1 1 2 3 3 2 0 -0 -1 0 1 1 0 -1 -1 -1 1 2 2 3 3 2 2 1 1 1 1 1 0 0 -0 -1 -1 -0 0 1 1 1 1 0 -0 -1 -1 -1 -1 -1 -1 -1 -0 -0 0 0 0 -0 -0 -0 -0 -0 0 0 1 0 0 0 -0 -0 -1 -1 -2 -2 -2 -2 -2 -2
24 18 8 2 3 6 4 5 5 3 -2 -1 0 3 7 8 9 9 10 9 8 7 6 5 4 4 4 3 4 3 3 3 4 4 3 -1 -3 -2 0 1 1 1 -0 -2 -2 -1 1 2 3 3 3 2 2 2 2 2 1 1 1 0 -0 -0 -0 0 1 1 0 0 -0 -1 -1 -1 -1 -1 -1 -1 -1 -0 0 0 0 0 -0 -0 -0 -0 -0 0 0 1 1 1 0 0 0 -0 -0 -1 -1 -2 -2 -2 -2
22 18 9 5 10 14 8 0 -1 0 -1 0 3 5 8 7 7 8 9 8 7 5 4 3 3 3 4 5 5 5 5 5 4 3 0 -3 -3 -1 0 1 1 1 -0 -1 -2 -2 -1 1 2 3 3 3 3 3 3 3 2 2 2 1 1 1 1 1 1 0 -0 -0 -0 -0 -1 -1 -1 -1 -1 -1 -1 -0 -0 -0 -0 -0 -0 -0 -0 -0 -0 -0 0 1 1 1 1 1 1 0 0 -0 -0 -1 -1 -2 -2
17 15 6 9 20 26 13 -4 -6 -1 1 2 3 4 3 3 4 5 6 7 6 4 3 2 3 4 4 6 7 7 6 6 4 1 -2 -0 2 4 3 3 2 1 0 0 -1 -2 -1 -0 1 2 3 4 4 4 4 3 3 2 2 2 2 2 2 1 1 -0 -1 -1 -1 -0 -1 -1 -1 -1 -1 -1 -1 -1 -1 -1 -1 -0 -1 -1 -1 -1 -1 -0 -0 0 0 0 0 1 1 1 0 0 -0 -0 -1 -1 -1
14 14 5 8 22 31 18 -3 -4 4 6 2 0 -1 -1 1 1 3 5 7 7 6 5 5 6 6 5 5 6 6 5 5 4 3 2 5 6 6 4 2 -1 -2 -1 1 -0 -2 -3 -1 0 2 3 4 4 4 4 3 3 2 2 2 2 2 2 2 1 -0 -1 -1 -1 -0 -0 -0 -1 -1 -1 -1 -1 -1 -1 -1 -1 -1 -1 -1 -1 -1 -1 -1 -1 -0 -1 -1 -0 -0 0 1 0 0 -0 -0 -0 -1 -1
14 14 7 4 13 20 8 -3 -1 8 18 7 1 -2 0 0 0 1 3 5 5 5 5 7 9 8 2 -0 1 4 4 5 6 6 6 5 4 2 -0 -4 -4 -2 2 1 -2 -4 -6 -1 2 3 4 4 4 4 3 2 2 2 2 2 3 3 3 2 1 0 -1 -1 -0 0 -0 -0 -0 -0 -1 -1 -1 -1 -1 -1 -1 -1 -1 -1 -1 -1 -1 -1 -1 -1 -1 -1 -1 -0 -0 0 0 -0 -0 -0 -0 -0 -1
13 14 11 4 4 4 -4 -2 1 9 26 19 8 1 2 -0 -1 -1 1 3 4 4 6 9 9 5 -5 -7 -3 3 6 8 8 7 5 2 -0 -2 -3 -1 3 5 4 0 -5 -8 -6 3 6 5 5 4 3 3 2 2 2 3 2 2 3 3 3 2 1 1 -0 0 1 1 0 0 0 -0 -1 -0 -0 -0 -1 -1 -1 -1 -2 -2 -1 -1 -1 -1 -1 -1 -1 -1 -1 -1 -0 -0 -0 -0 -0 -0 0 -0 -0
15 17 16 10 7 5 3 3 4 8 20 22 12 1 2 1 1 3 5 6 7 8 9 11 9 2 -11 -11 -3 6 8 9 8 7 5 3 1 2 4 5 5 2 -1 -6 -9 -8 2 8 8 5 2 3 3 3 1 2 3 3 2 3 3 3 2 2 1 1 1 1 1 0 0 0 0 -0 -0 0 0 0 0 -0 -1 -1 -1 -1 -1 -1 -1 -1 -1 -1 -1 -1 -1 -1 -1 -1 -1 -1 -1 -0 -0 -0 -0
19 21 20 13 10 9 8 6 4 5 12 11 5 0 4 7 9 10 8 8 8 9 11 14 10 1 -12 -13 -3 7 9 8 8 7 6 4 4 5 7 4 -0 -4 -5 -10 -9 -4 5 8 6 3 -2 2 4 4 2 3 4 3 3 3 3 2 2 1 1 1 1 1 0 0 0 0 0 0 0 1 1 1 1 1 -0 -1 -1 -2 -2 -1 -1 -1 -1 -1 -1 -1 -1 -1 -1 -1 -1 -1 -1 -1 -0 -0 -0
18 19 17 12 11 12 11 8 7 10 13 3 -1 1 9 14 11 6 1 3 6 10 16 17 9 -3 -14 -12 -1 9 9 6 6 7 8 7 6 5 5 4 3 3 1 -4 -4 -0 2 3 2 1 -1 3 3 3 4 4 3 2 3 3 3 2 1 1 0 1 1 1 0 0 1 1 1 1 1 1 1 1 2 2 1 -0 -1 -2 -2 -2 -1 -1 -1 -1 -1 -1 -1 -1 -1 -1 -1 -1 -1 -1 -1 -0 -1
12 12 13 9 8 9 12 12 16 20 21 9 3 4 12 12 6 -2 -3 3 10 16 22 14 1 -11 -16 -9 2 10 6 3 5 8 10 9 5 2 3 5 5 4 2 0 -1 -0 1 0 -1 -0 4 2 1 1 4 4 3 3 3 3 3 2 1 -0 -0 0 1 1 1 1 1 1 1 1 1 1 1 2 3 3 2 0 -1 -1 -2 -2 -2 -1 -1 -0 -1 -1 -1 -1 -1 -1 -1 -1 -1 -1 -1 -0 -1
8 10 14 6 1 -2 -0 4 10 16 22 15 9 5 7 7 4 1 1 7 13 16 14 -0 -11 -15 -11 -3 5 8 4 3 6 10 12 8 2 -1 2 3 2 0 1 1 0 -0 1 -0 -0 1 3 -0 -1 -1 2 3 4 4 4 4 3 1 0 -0 -0 1 1 1 1 1 1 1 2 2 2 2 2 2 3 3 3 1 0 -1 -1 -1 -1 -1 -1 -1 -1 -1 -1 -1 -0 -1 -1 -1 -1 -1 -1 -0 -0
6 12 19 11 4 -2 -4 -4 0 6 12 12 7 1 -1 1 3 4 1 -2 -1 -2 -7 -14 -13 -9 -5 4 9 9 5 6 8 10 10 7 3 -0 -0 -0 -1 -0 4 3 2 1 1 -0 -0 1 0 -1 -2 -2 -2 0 4 6 6 4 3 2 0 -0 0 1 1 1 1 1 2 2 2 3 3 3 3 3 3 3 3 2 1 0 -0 -0 -0 -0 -1 -1 -1 -1 -0 -0 -0 -1 -1 -1 -1 -1 -1 -1 -0
Height
3158 3159 3159 3160 3160 3160 3161 3161 3161 3162 3162 3163 3163 3164 3164 3165 3165 3166 3166 3166 3166 3166 3166 3166 3166 3165 3164 3163 3163 3162 3162 3162 3163 3163 3163 3164 3164 3164 3165 3165 3166 3166 3166 3167 3167 3167 3168 3168 3168 3169 3169 3169 3170 3170 3170 3170 3171 3171 3171 3171 3172 3172 3172 3172 3172 3172 3172 3172 3173 3173 3173 3173 3173 3173 3173 3173 3173 3173 3173 3173 3173 3172 3172 3172 3172 3171 3171 3171 3171 3171 3170 3170 3170 3169 3169 3169 3168 3168 3167 3167 3166 3166 3166
3158 3158 3159 3160 3160 3160 3160 3161 3161 3161 3162 3163 3163 3164 3164 3165 3165 3165 3166 3166 3166 3166 3166 3166 3165 3165 3164 3163 3163 3162 3162 3162 3163 3163 3163 3164 3164 3164 3165 3165 3166 3166 3166 3167 3167 3168 3168 3168 3169 3169 3169 3170 3170 3170 3170 3171 3171 3171 3171 3172 3172 3172 3172 3172 3172 3172 3173 3173 3173 3173 3173 3173 3173 3173 3173 3173 3173 3173 3173 3173 3173 3172 3172 3172 3172 3171 3171 3171 3171 3171 3170 3170 3170 3169 3169 3169 3168 3168 3167 3167 3166 3166 3166
3157 3158 3158 3159 3159 3160 3160 3160 3161 3161 3162 3162 3163 3163 3164 3164 3165 3165 3166 3166 3166 3166 3166 3165 3165 3164 3164 3163 3163 3162 3162 3162 3163 3163 3163 3164 3164 3165 3165 3166 3166 3166 3167 3167 3168 3168 3168 3169 3169 3169 3169 3170 3170 3170 3171 3171 3171 3171 3172 3172 3172 3172 3172 3172 3173 3173 3173 3173 3173 3173 3173 3173 3173 3174 3174 3174 3174 3173 3173 3173 3173 3173 3172 3172 3172 3172 3171 3171 3171 3171 3170 3170 3170 3170 3169 3169 3168 3168 3167 3167 3166 3166 3166
3157 3157 3158 3158 3159 3159 3160 3160 3161 3161 3161 3162 3162 3163 3163 3164 3164 3165 3165 3166 3166 3166 3165 3165 3165 3164 3163 3163 3162 3162 3162 3162 3163 3163 3164 3164 3164 3165 3165 3166 3166 3166 3167 3167 3168 3168 3168 3169 3169 3169 3170 3170 3170 3170 3171 3171 3171 3171 3172 3172 3172 3172 3172 3173 3173 3173 3173 3173 3173 3173 3174 3174 3174 3174 3174 3174 3174 3174 3173 3173 3173 3173 3173 3172 3172 3172 3171 3171 3171 3171 3171 3170 3170 3170 3169 3169 3168 3168 3167 3167 3167 3166 3166
3157 3157 3157 3158 3158 3159 3159 3160 3160 3161 3161 3161 3162 3163 3163 3164 3164 3165 3165 3165 3165 3165 3165 3165 3164 3164 3163 3163 3162 3162 3162 3162 3163 3163 3164 3164 3165 3165 3166 3166 3166 3166 3167 3167 3168 3168 3169 3169 3169 3169 3170 3170 3170 3171 3171 3171 3171 3171 3172 3172 3172 3172 3173 3173 3173 3173 3173 3173 3174 3173 3173 3174 3174 3174 3174 3174 3174 3174 3174 3173 3173 3173 3173 3172 3172 3172 3171 3171 3171 3171 3171 3170 3170 3170 3169 3169 3168 3168 3168 3167 3167 3166 3166
3156 3156 3157 3157 3158 3158 3159 3159 3160 3160 3161 3161 3162 3162 3163 3163 3164 3164 3164 3165 3165 3165 3165 3164 3164 3163 3163 3162 3162 3162 3162 3162 3163 3163 3164 3164 3165 3165 3166 3166 3166 3166 3167 3167 3168 3168 3169 3169 3169 3169 3170 3170 3170 3171 3171 3171 3171 3171 3172 3172 3172 3172 3173 3173 3173 3173 3173 3173 3174 3174 3174 3174 3174 3174 3174 3174 3174 3174 3174 3173 3173 3173 3173 3172 3172 3172 3172 3171 3171 3171 3171 3170 3170 3170 3169 3169 3169 3168 3168 3167 3167 3166 3166
3156 3156 3156 3157 3157 3158 3158 3159 3159 3160 3160 3161 3161 3162 3162 3163 3163 3164 3164 3164 3164 3164 3164 3164 3164 3163 3163 3162 3162 3162 3162 3162 3163 3163 3164 3164 3165 3165 3166 3166 3166 3166 3167 3167 3168 3168 3169 3169 3169 3169 3170 3170 3170 3171 3171 3171 3171 3171 3172 3172 3172 3172 3173 3173 3173 3173 3173 3173 3174 3175 3174 3174 3174 3174 3174 3174 3174 3174 3174 3173 3173 3173 3173 3173 3172 3172 3172 3171 3171 3171 3171 3170 3170 3170 3169 3169 3169 3168 3168 3167 3167 3166 3166
3155 3156 3156 3156 3157 3157 3158 3158 3159 3159 3160 3160 3161 3161 3162 3162 3163 3163 3163 3164 3164 3164 3164 3164 3163 3163 3162 3162 3162 3162 3162 3162 3163 3163 3164 3164 3165 3165 3166 3166 3166 3166 3167 3167 3168 3168 3168 3169 3169 3169 3170 3170 3170 3170 3171 3171 3171 3171 3172 3172 3172 3172 3173 3173 3173 3173 3173 3173 3174 3175 3174 3174 3174 3174 3174 3174 3174 3174 3174 3173 3173 3173 3173 3172 3172 3172 3172 3171 3171 3171 3171 3171 3170 3170 3170 3169 3169 3168 3168 3167 3167 3166 3166
3154 3155 3155 3156 3156 3157 3157 3158 3158 3159 3159 3160 3160 3161 3161 3162 3162 3163 3163 3163 3163 3164 3164 3163 3163 3163 3162 3162 3162 3162 3162 3162 3163 3163 3164 3165 3165 3165 3166 3166 3166 3166 3167 3167 3168 3168 3168 3169 3169 3169 3170 3170 3170 3170 3171 3171 3171 3171 3172 3172 3172 3172 3173 3173 3173 3173 3173 3174 3174 3174 3174 3174 3174 3174 3174 3174 3174 3174 3174 3174 3173 3173 3173 3172 3172 3172 3172 3171 3171 3171 3171 3171 3170 3170 3170 3169 3169 3168 3168 3168 3167 3167 3166
3154 3154 3155 3155 3156 3156 3156 3157 3157 3158 3159 3159 3160 3160 3161 3161 3162 3162 3162 3163 3163 3163 3163 3163 3163 3162 3162 3162 3162 3162 3162 3162 3163 3163 3164 3165 3165 3165 3166 3166 3166 3166 3167 3167 3167 3168 3168 3168 3169 3169 3169 3170 3170 3170 3171 3171 3171 3171 3172 3172 3172 3173 3173 3173 3173 3173 3174 3174 3174 3174 3174 3174 3174 3174 3174 3174 3174 3174 3174 3173 3173 3173 3173 3172 3172 3172 3172 3171 3171 3171 3171 3171 3170 3170 3170 3169 3169 3169 3168 3168 3167 3167 3166
3153 3153 3154 3155 3155 3156 3156 3156 3157 3157 3158 3159 3159 3160 3160 3161 3161 3162 3162 3162 3163 3163 3163 3163 3163 3162 3162 3162 3162 3162 3162 3162 3163 3163 3164 3165 3165 3165 3165 3166 3166 3166 3167 3167 3167 3168 3168 3168 3169 3169 3169 3170 3170 3170 3171 3171 3171 3171 3172 3172 3172 3173 3173 3173 3173 3174 3174 3174 3174 3174 3174 3174 3174 3174 3174 3174 3174 3174 3174 3173 3173 3173 3173 3172 3172 3172 3172 3171 3171 3171 3171 3171 3170 3170 3170 3169 3169 3169 3168 3168 3167 3167 3166
3152 3153 3153 3154 3155 3155 3156 3156 3156 3157 3157 3158 3159 3159 3160 3160 3161 3161 3161 3162 3162 3162 3162 3162 3162 3162 3162 3161 3161 3161 3162 3162 3163 3163 3164 3164 3165 3165 3165 3166 3166 3166 3166 3167 3167 3167 3168 3168 3168 3169 3169 3169 3170 3170 3170 3171 3171 3171 3172 3172 3172 3173 3173 3173 3174 3174 3174 3174 3174 3174 3174 3174 3174 3174 3174 3174 3174 3174 3174 3173 3173 3173 3173 3172 3172 3172 3172 3171 3171 3171 3171 3171 3170 3170 3170 3169 3169 3169 3168 3168 3167 3167 3166
3151 3152 3152 3153 3154 3154 3155 3156 3156 3156 3157 3157 3158 3159 3159 3160 3160 3161 3161 3161 3162 3162 3162 3162 3162 3162 3161 3161 3161 3161 3162 3162 3163 3163 3164 3164 3164 3165 3165 3165 3166 3166 3166 3167 3167 3167 3168 3168 3168 3169 3169 3169 3170 3170 3170 3171 3171 3171 3172 3172 3172 3173 3173 3173 3174 3174 3174 3174 3174 3174 3174 3174 3174 3174 3174 3174 3174 3174 3174 3173 3173 3173 3173 3172 3172 3172 3172 3171 3171 3171 3171 3171 3170 3170 3170 3169 3169 3169 3168 3168 3167 3167 3166
3151 3151 3152 3152 3153 3154 3154 3155 3156 3156 3156 3157 3157 3158 3158 3159 3160 3160 3161 3161 3161 3161 3161 3162 3161 3161 3161 3161 3161 3161 3161 3162 3162 3163 3163 3164 3164 3164 3165 3165 3166 3166 3166 3166 3167 3167 3167 3168 3168 3168 3169 3169 3170 3170 3170 3171 3171 3171 3172 3172 3172 3173 3173 3173 3174 3174 3174 3174 3175 3174 3174 3174 3174 3174 3174 3174 3174 3174 3174 3173 3173 3173 3173 3172 3172 3172 3172 3172 3171 3171 3171 3171 3170 3170 3170 3169 3169 3169 3168 3168 3167 3167 3166
3150 3150 3151 3151 3152 3153 3153 3154 3155 3155 3156 3156 3156 3157 3158 3158 3159 3159 3160 3160 3161 3161 3161 3161 3161 3161 3161 3161 3161 3161 3161 3161 3162 3163 3163 3163 3164 3164 3165 3165 3165 3166 3166 3166 3166 3167 3167 3167 3168 3168 3169 3169 3169 3170 3170 3171 3171 3171 3172 3172 3173 3173 3173 3173 3174 3174 3174 3174 3174 3174 3174 3174 3174 3174 3174 3174 3174 3174 3174 3173 3173 3173 3173 3173 3172 3172 3172 3172 3171 3171 3171 3171 3171 3170 3170 3169 3169 3169 3168 3168 3167 3167 3166
3149 3149 3150 3151 3151 3152 3153 3153 3154 3154 3155 3155 3156 3156 3157 3157 3158 3159 3159 3159 3160 3160 3161 3161 3161 3161 3160 3160 3160 3160 3161 3161 3162 3162 3163 3163 3164 3164 3164 3165 3165 3166 3166 3166 3166 3166 3167 3167 3168 3168 3168 3169 3169 3170 3170 3171 3171 3171 3172 3172 3173 3173 3173 3173 3174 3174 3174 3174 3174 3174 3174 3174 3174 3174 3174 3174 3174 3174 3174 3173 3173 3173 3173 3173 3172 3172 3172 3172 3171 3171 3171 3171 3171 3170 3170 3170 3169 3169 3168 3168 3167 3167 3166
3148 3149 3149 3150 3151 3151 3152 3152 3153 3153 3154 3155 3155 3156 3156 3157 3157 3158 3158 3159 3159 3160 3160 3160 3160 3160 3160 3160 3160 3160 3160 3161 3161 3162 3162 3163 3163 3164 3164 3165 3165 3165 3166 3166 3166 3166 3167 3167 3167 3168 3168 3169 3169 3170 3170 3170 3171 3171 3172 3172 3172 3173 3173 3173 3173 3174 3174 3174 3174 3174 3174 3174 3174 3174 3174 3174 3174 3174 3173 3173 3173 3173 3173 3173 3172 3172 3172 3172 3171 3171 3171 3171 3171 3170 3170 3170 3169 3169 3168 3168 3167 3167 3166
3147 3148 3149 3149 3150 3151 3151 3152 3152 3152 3153 3154 3154 3155 3156 3156 3156 3157 3158 3158 3158 3159 3159 3160 3160 3160 3160 3160 3160 3160 3160 3161 3161 3161 3162 3162 3163 3163 3164 3164 3165 3165 3166 3166 3166 3166 3166 3167 3167 3168 3168 3169 3169 3169 3170 3170 3171 3171 3171 3172 3172 3172 3173 3173 3173 3173 3173 3174 3174 3174 3174 3174 3174 3174 3174 3173 3173 3173 3173 3173 3173 3173 3173 3173 3172 3172 3172 3172 3171 3171 3171 3171 3171 3171 3170 3170 3169 3169 3168 3168 3167 3167 3166
3146 3147 3148 3148 3149 3150 3150 3151 3151 3152 3152 3153 3153 3154 3155 3155 3156 3156 3157 3157 3158 3158 3159 3159 3159 3159 3159 3159 3159 3160 3160 3160 3161 3161 3162 3162 3163 3163 3164 3164 3164 3165 3165 3166 3166 3166 3166 3167 3167 3167 3168 3168 3169 3169 3170 3170 3171 3171 3171 3172 3172 3172 3172 3173 3173 3173 3173 3173 3174 3174 3174 3173 3173 3173 3173 3173 3173 3173 3173 3173 3173 3173 3173 3172 3172 3172 3172 3171 3171 3171 3171 3171 3171 3170 3170 3170 3169 3169 3168 3168 3168 3167 3167
3146 3146 3147 3147 3148 3149 3149 3150 3150 3151 3151 3152 3152 3153 3153 3154 3155 3155 3156 3156 3157 3158 3158 3159 3159 3159 3159 3159 3159 3159 3160 3160 3161 3161 3161 3162 3162 3163 3163 3164 3164 3165 3165 3165 3166 3166 3166 3166 3167 3167 3168 3168 3169 3169 3170 3170 3170 3171 3171 3171 3172 3172 3172 3172 3173 3173 3173 3173 3173 3173 3173 3173 3173 3173 3173 3173 3173 3173 3173 3173 3173 3172 3172 3172 3172 3172 3172 3171 3171 3171 3171 3171 3171 3170 3170 3170 3169 3169 3168 3168 3168 3167 3167
3144 3145 3146 3146 3147 3147 3148 3148 3149 3150 3150 3151 3151 3152 3152 3153 3154 3154 3155 3156 3156 3157 3157 3158 3158 3159 3159 3159 3159 3159 3159 3160 3160 3161 3161 3161 3162 3162 3163 3163 3164 3164 3165 3165 3165 3166 3166 3166 3167 3167 3168 3168 3169 3169 3169 3170 3170 3171 3171 3171 3171 3172 3172 3172 3173 3173 3172 3173 3173 3173 3173 3173 3173 3173 3173 3173 3173 3173 3173 3172 3172 3172 3172 3172 3172 3172 3171 3171 3171 3171 3171 3171 3170 3170 3170 3169 3169 3169 3168 3168 3167 3167 3167
3142 3143 3144 3145 3145 3146 3146 3147 3147 3148 3149 3149 3150 3151 3151 3152 3153 3153 3154 3155 3156 3156 3157 3157 3158 3158 3158 3158 3158 3159 3159 3159 3160 3160 3161 3161 3161 3162 3162 3163 3163 3164 3164 3165 3165 3166 3166 3166 3166 3167 3167 3168 3168 3169 3169 3170 3170 3170 3171 3171 3171 3171 3172 3172 3172 3172 3172 3173 3173 3173 3173 3173 3173 3173 3173 3173 3172 3172 3172 3172 3172 3172 3172 3172 3172 3172 3171 3171 3171 3171 3171 3170 3170 3170 3170 3169 3169 3169 3168 3168 3167 3167 3166
3141 3142 3142 3143 3144 3144 3145 3146 3146 3147 3147 3148 3149 3150 3150 3151 3152 3153 3153 3154 3155 3156 3156 3157 3157 3157 3158 3158 3158 3158 3158 3159 3159 3160 3161 3161 3161 3162 3162 3163 3163 3164 3164 3165 3165 3165 3166 3166 3166 3167 3167 3168 3168 3169 3169 3169 3170 3170 3170 3171 3171 3171 3171 3172 3172 3172 3172 3172 3172 3172 3172 3172 3172 3172 3172 3172 3172 3172 3172 3172 3172 3172 3172 3171 3171 3171 3171 3171 3171 3171 3171 3170 3170 3170 3169 3169 3169 3168 3168 3168 3167 3167 3166
3140 3141 3141 3142 3142 3143 3144 3144 3145 3146 3146 3147 3148 3149 3149 3150 3151 3152 3153 3153 3154 3155 3155 3156 3156 3157 3157 3157 3157 3157 3158 3158 3159 3159 3160 3161 3161 3161 3162 3162 3163 3163 3164 3164 3165 3165 3165 3166 3166 3166 3167 3167 3168 3168 3169 3169 3169 3170 3170 3171 3171 3171 3171 3171 3172 3172 3172 3172 3172 3172 3172 3172 3172 3172 3172 3172 3172 3172 3172 3172 3172 3172 3171 3171 3171 3171 3171 3171 3171 3171 3170 3170 3170 3170 3169 3169 3169 3168 3168 3167 3167 3167 3166
3139 3139 3140 3141 3141 3142 3143 3143 3144 3145 3145 3146 3147 3148 3148 3149 3150 3151 3152 3152 3153 3154 3155 3155 3156 3156 3156 3157 3157 3157 3157 3158 3158 3159 3160 3160 3161 3161 3161 3162 3162 3163 3163 3164 3164 3165 3165 3165 3166 3166 3167 3167 3167 3168 3168 3169 3169 3169 3170 3170 3170 3171 3171 3171 3171 3171 3172 3172 3172 3172 3172 3172 3172 3172 3172 3172 3172 3172 3172 3172 3172 3171 3171 3171 3171 3171 3171 3171 3171 3171 3170 3170 3170 3169 3169 3169 3168 3168 3168 3167 3167 3167 3166
3137 3138 3139 3140 3140 3141 3141 3142 3143 3144 3144 3145 3146 3147 3148 3149 3150 3150 3151 3151 3152 3153 3154 3154 3155 3156 3156 3156 3156 3156 3157 3157 3158 3158 3159 3160 3160 3161 3161 3161 3162 3162 3163 3163 3164 3164 3165 3165 3165 3166 3166 3167 3167 3167 3168 3168 3169 3169 3170 3170 3170 3170 3171 3171 3171 3171 3171 3171 3171 3172 3172 3172 3172 3172 3172 3172 3172 3172 3172 3172 3172 3171 3171 3171 3171 3171 3171 3171 3171 3170 3170 3170 3170 3169 3169 3169 3168 3168 3168 3167 3167 3166 3166
3136 3136 3137 3138 3139 3140 3141 3141 3142 3142 3143 3144 3145 3146 3147 3148 3149 3149 3150 3151 3151 3152 3153 3153 3154 3155 3155 3156 3156 3156 3156 3156 3157 3158 3158 3159 3160 3160 3161 3161 3162 3162 3163 3163 3164 3164 3164 3165 3165 3166 3166 3166 3167 3167 3168 3168 3168 3169 3169 3169 3170 3170 3171 3171 3171 3171 3171 3171 3171 3171 3171 3171 3171 3171 3171 3171 3171 3171 3171 3171 3171 3171 3171 3171 3171 3170 3170 3170 3170 3170 3170 3169 3169 3169 3169 3168 3168 3168 3167 3167 3167 3166 3166
3134 3135 3136 3137 3138 3139 3139 3140 3141 3141 3142 3143 3144 3145 3146 3147 3148 3148 3149 3150 3151 3151 3152 3152 3153 3154 3154 3155 3155 3156 3156 3156 3156 3157 3158 3158 3159 3160 3160 3161 3161 3162 3162 3163 3163 3164 3164 3164 3165 3165 3166 3166 3166 3167 3167 3168 3168 3168 3169 3169 3169 3169 3170 3170 3171 3171 3171 3171 3171 3171 3171 3171 3171 3171 3171 3171 3171 3171 3171 3171 3171 3171 3171 3171 3171 3171 3170 3170 3170 3170 3169 3169 3169 3169 3168 3168 3168 3168 3167 3167 3166 3166 3166
3133 3134 3135 3136 3137 3137 3138 3139 3140 3140 3141 3142 3143 3144 3145 3146 3147 3148 3148 3149 3150 3150 3151 3151 3152 3153 3153 3154 3155 3155 3155 3155 3156 3156 3157 3158 3159 3159 3160 3161 3161 3161 3162 3162 3163 3163 3163 3164 3164 3165 3165 3166 3166 3166 3167 3167 3168 3168 3168 3168 3169 3169 3169 3170 3170 3170 3170 3170 3171 3171 3170 3171 3171 3171 3171 3171 3171 3171 3171 3171 3171 3171 3171 3171 3170 3170 3170 3170 3169 3169 3169 3169 3169 3168 3168 3168 3168 3167 3167 3166 3166 3166 3166
3132 3132 3134 3134 3136 3136 3137 3138 3139 3139 3140 3141 3142 3143 3144 3145 3146 3147 3148 3148 3149 3149 3150 3150 3151 3151 3152 3153 3154 3154 3155 3155 3155 3156 3156 3157 3158 3159 3159 3160 3161 3161 3161 3162 3162 3163 3163 3163 3164 3164 3165 3165 3166 3166 3167 3167 3167 3167 3168 3168 3168 3168 3169 3169 3169 3170 3170 3170 3170 3171 3170 3170 3170 3171 3171 3170 3171 3171 3171 3171 3171 3171 3171 3170 3170 3170 3170 3169 3169 3169 3169 3168 3168 3168 3168 3167 3167 3167 3167 3166 3166 3166 3165
3130 3131 3132 3133 3134 3135 3136 3137 3137 3138 3139 3140 3141 3142 3143 3144 3145 3146 3147 3147 3148 3148 3149 3149 3150 3151 3151 3152 3153 3154 3154 3155 3155 3155 3156 3156 3157 3158 3159 3159 3160 3161 3161 3161 3162 3162 3163 3163 3164 3164 3165 3165 3166 3166 3166 3167 3167 3167 3167 3167 3168 3168 3168 3168 3169 3170 3170 3170 3170 3170 3170 3170 3170 3170 3170 3171 3171 3170 3170 3170 3170 3170 3170 3170 3170 3169 3169 3169 3169 3168 3168 3168 3168 3168 3167 3167 3167 3166 3166 3166 3166 3165 3165
3129 3130 3131 3131 3133 3134 3135 3136 3136 3137 3138 3139 3140 3141 3142 3143 3144 3145 3146 3146 3147 3147 3148 3148 3149 3150 3150 3151 3152 3153 3153 3154 3154 3155 3155 3156 3156 3157 3158 3159 3159 3160 3161 3161 3161 3162 3162 3163 3163 3164 3164 3165 3165 3166 3166 3166 3166 3167 3167 3167 3167 3168 3168 3168 3168 3169 3169 3169 3170 3170 3170 3170 3170 3170 3170 3170 3170 3170 3170 3170 3170 3170 3170 3170 3169 3169 3169 3168 3168 3168 3168 3168 3167 3167 3167 3167 3166 3166 3166 3166 3165 3165 3165
3127 3128 3129 3130 3131 3132 3133 3134 3135 3136 3137 3138 3139 3141 3141 3143 3144 3145 3145 3146 3146 3146 3147 3147 3148 3149 3149 3150 3151 3151 3152 3153 3154 3154 3155 3155 3156 3156 3157 3158 3159 3159 3160 3161 3161 3161 3162 3162 3163 3163 3164 3164 3165 3165 3166 3166 3166 3166 3166 3167 3167 3167 3167 3168 3168 3168 3169 3169 3169 3169 3169 3169 3170 3170 3170 3170 3170 3170 3170 3170 3170 3169 3169 3169 3169 3169 3168 3168 3168 3167 3167 3167 3167 3167 3167 3166 3166 3166 3165 3165 3165 3165 3164
3126 3126 3127 3129 3130 3131 3132 3132 3134 3135 3136 3137 3138 3140 3141 3142 3143 3143 3144 3145 3145 3145 3146 3146 3147 3147 3148 3149 3149 3150 3151 3152 3153 3154 3154 3155 3155 3156 3156 3157 3158 3158 3159 3160 3160 3161 3161 3162 3162 3163 3163 3164 3164 3165 3165 3165 3166 3166 3166 3166 3166 3167 3167 3167 3168 3168 3168 3168 3169 3169 3169 3169 3169 3169 3169 3169 3169 3169 3169 3169 3169 3169 3169 3169 3168 3168 3168 3167 3167 3167 3167 3167 3167 3166 3166 3166 3166 3165 3165 3165 3164 3164 3164
3124 3125 3126 3127 3128 3129 3130 3131 3132 3134 3135 3136 3137 3138 3140 3141 3142 3142 3143 3143 3144 3144 3145 3145 3146 3146 3147 3147 3148 3149 3150 3151 3152 3153 3153 3154 3155 3155 3156 3156 3157 3158 3158 3159 3160 3160 3161 3161 3162 3162 3163 3163 3163 3164 3164 3165 3165 3166 3166 3166 3166 3166 3166 3167 3167 3167 3168 3168 3168 3168 3168 3168 3168 3169 3169 3169 3169 3169 3169 3169 3169 3168 3168 3168 3168 3167 3167 3167 3166 3166 3166 3166 3166 3166 3166 3166 3165 3165 3165 3164 3164 3163 3163
3123 3124 3125 3126 3126 3127 3129 3130 3131 3132 3134 3135 3136 3137 3139 3140 3141 3141 3141 3142 3142 3143 3143 3144 3145 3145 3146 3146 3147 3148 3149 3150 3151 3152 3153 3153 3154 3154 3155 3156 3156 3157 3157 3158 3159 3159 3160 3161 3161 3161 3162 3162 3163 3163 3164 3164 3165 3165 3165 3165 3166 3166 3166 3166 3167 3167 3167 3167 3167 3167 3168 3168 3168 3168 3168 3168 3168 3168 3168 3168 3168 3168 3168 3167 3167 3167 3166 3166 3166 3166 3166 3166 3166 3166 3166 3165 3165 3164 3164 3164 3163 3163 3162
3122 3123 3123 3124 3125 3126 3127 3129 3130 3131 3132 3134 3135 3136 3137 3138 3139 3140 3140 3141 3141 3141 3142 3143 3143 3144 3145 3145 3146 3147 3148 3149 3150 3151 3152 3152 3153 3154 3154 3155 3156 3156 3157 3157 3158 3159 3159 3160 3160 3161 3161 3162 3162 3163 3163 3163 3164 3164 3165 3165 3165 3165 3166 3166 3166 3166 3166 3167 3167 3167 3167 3167 3167 3167 3168 3168 3168 3168 3168 3168 3168 3167 3167 3167 3167 3167 3166 3166 3166 3166 3166 3165 3165 3165 3165 3165 3164 3164 3163 3163 3163 3162 3162
3121 3121 3122 3122 3123 3125 3126 3127 3128 3130 3131 3132 3134 3135 3136 3137 3138 3138 3139 3139 3140 3141 3141 3142 3142 3143 3144 3144 3145 3146 3147 3148 3149 3150 3151 3151 3152 3153 3154 3154 3155 3155 3156 3156 3157 3158 3158 3159 3160 3160 3161 3161 3161 3162 3162 3163 3163 3164 3164 3164 3164 3165 3165 3165 3166 3166 3166 3166 3166 3166 3166 3167 3167 3167 3167 3167 3167 3167 3167 3167 3167 3167 3167 3167 3166 3166 3166 3166 3165 3165 3165 3165 3165 3165 3164 3164 3164 3163 3163 3162 3162 3162 3161
3119 3120 3121 3121 3122 3123 3124 3126 3127 3129 3130 3131 3132 3133 3135 3136 3136 3137 3137 3138 3139 3139 3140 3141 3141 3142 3142 3143 3144 3145 3146 3146 3148 3149 3150 3151 3151 3152 3153 3153 3154 3155 3155 3156 3156 3157 3157 3158 3159 3159 3160 3160 3161 3161 3162 3162 3162 3163 3163 3163 3164 3164 3164 3164 3165 3165 3165 3166 3166 3166 3166 3166 3166 3166 3166 3166 3166 3166 3166 3166 3167 3167 3166 3166 3166 3166 3166 3165 3165 3165 3164 3164 3164 3164 3164 3163 3163 3163 3162 3162 3161 3161 3161
3116 3116 3118 3119 3121 3121 3123 3124 3126 3127 3128 3130 3131 3132 3133 3134 3135 3136 3136 3137 3137 3138 3139 3139 3140 3140 3141 3142 3143 3143 3144 3145 3146 3147 3148 3149 3150 3151 3152 3152 3153 3154 3154 3155 3155 3156 3156 3157 3158 3158 3159 3159 3160 3161 3161 3161 3162 3162 3162 3163 3163 3163 3163 3164 3164 3164 3165 3165 3165 3165 3165 3165 3166 3166 3166 3166 3166 3166 3166 3166 3166 3166 3166 3166 3166 3165 3165 3165 3165 3164 3164 3164 3163 3163 3163 3163 3162 3162 3162 3161 3161 3161 3160
3113 3114 3115 3117 3119 3120 3121 3122 3124 3126 3127 3128 3129 3131 3132 3133 3133 3134 3135 3135 3136 3137 3137 3138 3138 3139 3140 3141 3141 3142 3143 3144 3145 3146 3147 3148 3149 3150 3151 3151 3152 3152 3153 3154 3154 3155 3156 3156 3157 3157 3158 3158 3159 3160 3160 3161 3161 3161 3162 3162 3162 3162 3163 3163 3163 3163 3164 3164 3164 3164 3165 3165 3165 3165 3165 3165 3165 3165 3165 3165 3165 3165 3165 3165 3165 3165 3165 3164 3164 3164 3163 3163 3163 3163 3163 3162 3162 3161 3161 3161 3161 3160 3160
3111 3112 3113 3115 3117 3118 3119 3121 3122 3124 3125 3126 3128 3129 3130 3131 3132 3132 3133 3134 3135 3135 3136 3136 3137 3138 3139 3140 3141 3141 3142 3143 3144 3145 3146 3147 3148 3149 3150 3150 3151 3151 3152 3153 3153 3154 3154 3155 3156 3156 3157 3157 3158 3159 3159 3160 3160 3161 3161 3161 3161 3161 3162 3162 3162 3162 3163 3163 3163 3163 3164 3164 3164 3164 3164 3164 3164 3164 3164 3164 3164 3164 3164 3164 3164 3164 3164 3164 3164 3163 3163 3163 3162 3162 3162 3162 3161 3161 3161 3160 3160 3160 3159
3109 3110 3111 3112 3114 3116 3117 3119 3121 3122 3124 3125 3126 3127 3128 3129 3130 3131 3132 3132 3133 3134 3135 3135 3136 3137 3138 3138 3139 3140 3141 3142 3143 3144 3145 3146 3146 3147 3148 3149 3150 3150 3151 3151 3152 3153 3153 3154 3154 3155 3155 3156 3157 3158 3158 3159 3159 3160 3160 3160 3161 3161 3161 3161 3161 3162 3162 3162 3162 3163 3163 3163 3163 3163 3163 3163 3163 3163 3164 3164 3164 3164 3164 3163 3163 3163 3163 3163 3163 3163 3162 3162 3162 3162 3161 3161 3161 3161 3160 3160 3159 3159 3158
3106 3108 3109 3111 3112 3114 3116 3117 3119 3121 3122 3123 3125 3126 3127 3128 3129 3129 3130 3131 3132 3132 3133 3134 3135 3136 3136 3137 3138 3139 3140 3141 3142 3143 3144 3144 3145 3146 3147 3148 3149 3149 3150 3150 3151 3151 3152 3152 3153 3153 3154 3155 3156 3156 3157 3158 3158 3159 3159 3159 3160 3160 3160 3160 3161 3161 3161 3161 3161 3162 3162 3162 3162 3162 3162 3162 3162 3163 3163 3163 3163 3163 3163 3163 3163 3163 3162 3162 3162 3162 3162 3161 3161 3161 3161 3161 3160 3160 3159 3159 3158 3158 3158
3104 3106 3107 3109 3110 3112 3114 3115 3117 3118 3120 3121 3122 3124 3125 3126 3126 3127 3128 3129 3130 3131 3131 3132 3133 3134 3135 3136 3137 3138 3139 3140 3141 3142 3142 3143 3144 3144 3145 3146 3147 3148 3148 3149 3150 3150 3150 3151 3151 3152 3153 3154 3155 3155 3156 3156 3157 3157 3158 3158 3158 3159 3159 3159 3160 3160 3160 3160 3161 3161 3161 3161 3161 3161 3161 3161 3161 3161 3162 3162 3162 3162 3162 3162 3162 3162 3161 3161 3161 3161 3161 3161 3161 3160 3160 3160 3160 3159 3159 3158 3158 3157 3157
3101 3103 3105 3107 3108 3109 3111 3113 3115 3116 3117 3119 3120 3121 3122 3123 3124 3125 3126 3127 3128 3129 3130 3131 3131 3133 3134 3135 3136 3137 3138 3139 3140 3141 3141 3141 3142 3143 3143 3144 3145 3146 3147 3147 3148 3148 3149 3149 3150 3151 3151 3152 3153 3154 3155 3155 3156 3156 3156 3157 3157 3157 3158 3158 3158 3159 3159 3159 3160 3160 3160 3160 3160 3160 3160 3161 3161 3161 3161 3161 3161 3161 3161 3161 3161 3161 3161 3161 3161 3160 3160 3160 3160 3159 3159 3159 3159 3158 3158 3157 3157 3156 3156
3099 3101 3103 3105 3106 3107 3109 3111 3113 3114 3115 3116 3117 3119 3120 3121 3122 3123 3124 3126 3126 3127 3128 3129 3130 3131 3132 3133 3134 3136 3136 3137 3138 3139 3140 3140 3141 3141 3141 3142 3143 3144 3145 3146 3146 3147 3147 3147 3148 3149 3150 3151 3152 3153 3153 3154 3154 3155 3155 3156 3156 3156 3157 3157 3157 3158 3158 3158 3158 3159 3159 3159 3159 3159 3159 3159 3160 3160 3160 3160 3160 3160 3160 3160 3160 3160 3160 3159 3159 3159 3159 3159 3159 3158 3158 3158 3158 3157 3157 3156 3156 3156 3155
3096 3098 3100 3102 3104 3106 3107 3109 3110 3111 3112 3113 3115 3116 3117 3119 3120 3121 3123 3124 3125 3126 3126 3128 3128 3129 3131 3131 3132 3133 3134 3135 3136 3137 3138 3138 3139 3139 3140 3140 3141 3142 3143 3144 3145 3145 3146 3146 3147 3148 3149 3150 3151 3151 3152 3152 3153 3153 3154 3154 3155 3155 3156 3156 3156 3157 3157 3157 3157 3157 3158 3158 3158 3158 3158 3158 3158 3159 3159 3159 3159 3159 3159 3159 3158 3158 3158 3158 3158 3158 3158 3158 3157 3157 3157 3157 3156 3156 3156 3155 3155 3155 3154
3093 3095 3096 3099 3101 3103 3105 3106 3106 3108 3110 3111 3112 3114 3116 3117 3119 3120 3122 3123 3124 3125 3126 3126 3127 3128 3129 3130 3131 3132 3133 3134 3135 3135 3136 3137 3137 3137 3138 3138 3139 3140 3141 3142 3143 3144 3144 3145 3145 3146 3147 3148 3149 3150 3151 3151 3151 3152 3153 3153 3154 3154 3155 3155 3155 3156 3156 3156 3156 3156 3156 3157 3157 3157 3157 3157 3157 3157 3157 3157 3157 3157 3157 3157 3157 3157 3157 3157 3157 3157 3156 3156 3156 3156 3156 3156 3155 3155 3155 3154 3154 3153 3153
3090 3092 3094 3096 3098 3100 3102 3103 3104 3106 3107 3109 3110 3112 3114 3116 3117 3119 3120 3121 3122 3123 3124 3124 3125 3126 3127 3128 3129 3130 3131 3132 3133 3133 3134 3134 3135 3136 3136 3137 3138 3139 3140 3141 3141 3142 3142 3143 3144 3145 3146 3147 3148 3149 3149 3150 3150 3151 3151 3152 3153 3153 3154 3154 3154 3154 3155 3155 3155 3155 3156 3156 3156 3156 3156 3156 3156 3156 3156 3156 3156 3156 3156 3156 3156 3156 3156 3156 3155 3155 3155 3155 3155 3155 3155 3154 3154 3154 3153 3153 3152 3152 3152
3088 3090 3092 3094 3096 3098 3099 3101 3103 3104 3106 3106 3108 3110 3111 3113 3115 3116 3118 3119 3120 3121 3121 3122 3123 3125 3126 3126 3128 3129 3130 3131 3131 3131 3132 3132 3133 3135 3135 3136 3136 3137 3138 3139 3140 3140 3141 3141 3142 3143 3144 3146 3146 3147 3148 3148 3149 3150 3150 3151 3151 3152 3152 3153 3153 3153 3153 3154 3154 3154 3154 3154 3155 3155 3155 3155 3155 3155 3155 3155 3155 3155 3155 3155 3154 3154 3154 3154 3154 3154 3154 3153 3153 3153 3153 3153 3153 3152 3152 3151 3151 3151 3150
3085 3087 3090 3091 3093 3095 3097 3099 3101 3102 3103 3104 3105 3106 3108 3110 3111 3113 3115 3116 3117 3118 3119 3120 3121 3122 3124 3125 3126 3127 3128 3129 3129 3130 3130 3131 3133 3134 3134 3135 3135 3136 3136 3137 3138 3138 3139 3139 3141 3142 3143 3144 3145 3146 3146 3147 3148 3148 3149 3150 3150 3151 3151 3151 3151 3151 3152 3152 3153 3153 3153 3153 3153 3153 3153 3154 3154 3154 3154 3154 3154 3154 3154 3153 3153 3153 3153 3152 3152 3152 3152 3152 3152 3152 3152 3151 3151 3151 3151 3150 3150 3149 3149
3082 3084 3087 3089 3089 3090 3093 3097 3098 3099 3098 3100 3101 3103 3105 3106 3108 3110 3112 3113 3115 3116 3116 3118 3119 3121 3122 3123 3124 3125 3126 3126 3127 3128 3129 3131 3131 3132 3132 3132 3132 3133 3135 3135 3136 3136 3137 3138 3139 3141 3142 3143 3144 3144 3145 3146 3146 3147 3148 3148 3149 3149 3150 3150 3150 3150 3151 3151 3151 3151 3152 3152 3152 3152 3152 3152 3152 3152 3152 3152 3152 3152 3152 3152 3152 3151 3151 3151 3151 3151 3151 3151 3150 3150 3150 3150 3150 3150 3149 3149 3148 3148 3147
3079 3081 3085 3086 3087 3089 3091 3094 3095 3095 3094 3094 3096 3100 3101 3103 3105 3107 3109 3111 3112 3113 3114 3116 3117 3119 3120 3121 3122 3123 3123 3124 3126 3126 3127 3128 3129 3129 3129 3130 3131 3132 3133 3133 3134 3134 3135 3137 3139 3140 3141 3141 3142 3142 3143 3144 3145 3146 3146 3147 3147 3148 3148 3148 3148 3148 3149 3150 3150 3150 3150 3150 3150 3151 3151 3151 3151 3151 3151 3151 3151 3151 3151 3151 3151 3150 3150 3150 3149 3149 3149 3149 3149 3149 3149 3149 3148 3148 3148 3147 3147 3146 3146
3076 3079 3082 3084 3086 3087 3089 3091 3092 3092 3091 3088 3092 3097 3099 3101 3102 3104 3106 3108 3110 3111 3112 3114 3115 3116 3117 3119 3120 3121 3122 3123 3124 3125 3126 3126 3126 3127 3127 3129 3130 3131 3131 3131 3131 3132 3134 3137 3138 3139 3139 3140 3140 3141 3141 3142 3143 3144 3145 3145 3146 3146 3146 3146 3146 3147 3147 3148 3148 3148 3149 3149 3149 3149 3149 3149 3149 3149 3149 3149 3149 3149 3149 3149 3149 3149 3148 3148 3148 3147 3147 3147 3147 3147 3147 3147 3147 3147 3146 3146 3146 3145 3145
3074 3076 3079 3081 3083 3085 3086 3087 3089 3090 3089 3087 3090 3095 3096 3098 3100 3102 3104 3106 3108 3109 3111 3112 3112 3113 3113 3115 3118 3120 3121 3122 3123 3123 3124 3124 3125 3126 3126 3127 3128 3128 3129 3129 3130 3131 3134 3136 3136 3136 3137 3138 3138 3139 3140 3141 3141 3142 3143 3143 3144 3144 3145 3145 3145 3146 3146 3146 3146 3147 3147 3147 3147 3147 3147 3147 3147 3147 3147 3147 3147 3147 3147 3147 3147 3147 3147 3146 3146 3146 3146 3146 3146 3146 3146 3146 3145 3145 3145 3145 3144 3144 3143
3071 3074 3076 3079 3081 3082 3083 3084 3085 3087 3088 3088 3090 3092 3094 3096 3097 3098 3101 3103 3106 3107 3109 3110 3110 3110 3110 3113 3116 3118 3119 3120 3121 3121 3122 3122 3123 3124 3125 3125 3126 3126 3127 3128 3130 3132 3133 3134 3134 3134 3134 3136 3136 3137 3138 3139 3140 3140 3141 3141 3142 3142 3143 3143 3143 3144 3144 3145 3145 3145 3145 3146 3146 3146 3146 3146 3146 3146 3146 3146 3146 3146 3146 3146 3146 3146 3145 3145 3145 3144 3144 3144 3144 3144 3144 3144 3144 3144 3143 3143 3143 3142 3142
3069 3071 3074 3076 3078 3079 3080 3081 3082 3084 3084 3086 3088 3090 3090 3091 3092 3095 3098 3100 3103 3105 3107 3107 3107 3106 3107 3111 3114 3116 3117 3118 3119 3120 3120 3121 3121 3122 3123 3123 3124 3125 3126 3127 3129 3130 3130 3131 3131 3131 3132 3133 3134 3135 3136 3137 3137 3138 3139 3140 3140 3141 3141 3141 3141 3142 3142 3143 3143 3143 3144 3144 3144 3144 3144 3144 3144 3144 3144 3144 3144 3144 3144 3144 3144 3144 3144 3143 3143 3143 3142 3142 3142 3142 3142 3142 3142 3142 3141 3141 3141 3141 3141
3066 3068 3071 3073 3075 3076 3078 3079 3080 3081 3081 3083 3085 3086 3086 3087 3089 3092 3095 3098 3101 3103 3104 3104 3103 3103 3105 3108 3111 3113 3114 3115 3116 3118 3118 3119 3119 3119 3120 3121 3122 3123 3124 3126 3126 3127 3128 3128 3129 3130 3131 3131 3132 3133 3134 3135 3135 3136 3137 3138 3138 3139 3139 3139 3139 3140 3141 3141 3141 3142 3142 3142 3142 3142 3142 3142 3142 3142 3142 3142 3142 3142 3142 3142 3142 3142 3142 3142 3141 3141 3141 3141 3141 3140 3140 3140 3140 3140 3140 3140 3140 3139 3139
3064 3066 3069 3071 3072 3073 3076 3077 3078 3078 3079 3081 3081 3083 3084 3085 3087 3090 3093 3096 3098 3100 3100 3098 3098 3101 3103 3106 3109 3110 3111 3113 3114 3115 3116 3116 3116 3116 3118 3119 3120 3121 3122 3123 3124 3125 3126 3126 3127 3127 3128 3129 3129 3131 3131 3132 3133 3134 3135 3136 3136 3136 3136 3137 3137 3138 3139 3139 3140 3140 3140 3140 3140 3140 3140 3140 3140 3140 3140 3141 3141 3141 3141 3140 3140 3140 3140 3140 3140 3140 3139 3139 3139 3139 3138 3138 3138 3138 3138 3138 3138 3138 3137
3061 3064 3066 3068 3069 3071 3072 3074 3075 3076 3077 3078 3079 3081 3082 3084 3086 3087 3088 3091 3092 3094 3094 3093 3095 3099 3101 3104 3106 3108 3109 3111 3112 3113 3113 3114 3114 3114 3116 3117 3118 3119 3121 3121 3122 3122 3123 3123 3124 3125 3126 3126 3127 3128 3129 3130 3131 3132 3133 3133 3134 3134 3134 3135 3136 3136 3137 3137 3137 3137 3138 3138 3138 3138 3138 3138 3138 3138 3138 3138 3139 3139 3139 3138 3138 3138 3138 3138 3138 3138 3138 3137 3137 3137 3136 3136 3136 3136 3136 3136 3136 3136 3136